User: anonymous   Login
Location: Unspecified
(0.0000°N, 0.0000°E)
Time: 14:49:11
(UTC+00:00)
Language:

50 SAT - Orbit

View from above orbital plane
View from above orbital plane
View from above satellite
View from above satellite

Ground track
Ground track

The orbit data is extracted from the following two-line orbital elements,

1 39436U 13066W   17206.26015324 +.00017713 +00000-0 +46760-3 0  9995
2 39436 097.7115 314.1039 0009107 306.0832 053.9568 15.38487611201358
Epoch (UTC): 25 July 2017 06:14:37
Eccentricity: 0.0009107
inclination: 97.7115°
perigee height: 444 km
apogee height: 457 km
right ascension of ascending node: 314.1039°
argument of perigee: 306.0832°
revolutions per day: 15.38487611
mean anomaly at epoch: 53.9568°
orbit number at epoch: 20135

The dashed part of the orbit path shows where the satellite is in the earth's shadow,  

DLR